DGVOS EDDG-EDLW

Flight info

Callsign DGVOS
Flight time 0h 21m
Altitude
Route
Aircraft DA42

Departure

Time 2026-05-05 19:02
Airport Münster Osnabrück Airport (EDDG)

Arrival

Time 2026-05-05 19:23
Airport Dortmund Airport (EDLW)
Time Latitude Longitude Altitude Speed Heading
2026-05-05 18:57 52.13141 7.68234 162 ft 0 kts 270°
2026-05-05 18:58 52.13141 7.68231 162 ft 2 kts 270°
2026-05-05 18:58 52.13155 7.68203 162 ft 5 kts 353°
2026-05-05 18:58 52.13179 7.68246 162 ft 8 kts 78°
2026-05-05 18:58 52.13194 7.68323 162 ft 7 kts 70°
2026-05-05 18:59 52.13235 7.68324 162 ft 9 kts 315°
2026-05-05 18:59 52.13233 7.68214 162 ft 13 kts 250°
2026-05-05 18:59 52.13198 7.68046 162 ft 17 kts 252°
2026-05-05 18:59 52.13156 7.67855 162 ft 19 kts 251°
2026-05-05 19:00 52.13114 7.67657 162 ft 18 kts 251°
2026-05-05 19:00 52.13073 7.67466 162 ft 17 kts 251°
2026-05-05 19:00 52.13034 7.67284 162 ft 16 kts 251°
2026-05-05 19:00 52.13046 7.67121 162 ft 15 kts 306°
2026-05-05 19:01 52.13121 7.67040 161 ft 11 kts 346°
2026-05-05 19:01 52.13162 7.67054 161 ft 2 kts 68°
2026-05-05 19:01 52.13165 7.67065 161 ft 8 kts 70°
2026-05-05 19:01 52.13252 7.67478 159 ft 67 kts 70°
2026-05-05 19:02 52.13435 7.68322 280 ft 83 kts 65°
2026-05-05 19:02 52.13628 7.69251 496 ft 93 kts 66°
2026-05-05 19:02 52.13823 7.70304 729 ft 99 kts 81°
2026-05-05 19:02 52.13599 7.71374 962 ft 110 kts 128°
2026-05-05 19:03 52.12894 7.71932 1198 ft 120 kts 167°
2026-05-05 19:03 52.12045 7.71789 1358 ft 130 kts 189°
2026-05-05 19:03 52.11150 7.71415 1524 ft 137 kts 189°
2026-05-05 19:03 52.10207 7.70998 1651 ft 144 kts 191°
2026-05-05 19:04 52.09219 7.70519 1715 ft 154 kts 192°
2026-05-05 19:04 52.08182 7.70030 1797 ft 157 kts 193°
2026-05-05 19:04 52.07123 7.69459 1841 ft 164 kts 195°
2026-05-05 19:04 52.06035 7.68831 1854 ft 168 kts 196°
2026-05-05 19:05 52.04935 7.68157 1826 ft 167 kts 198°
2026-05-05 19:05 52.03885 7.67507 1799 ft 161 kts 196°
2026-05-05 19:05 52.02846 7.66911 1836 ft 154 kts 195°
2026-05-05 19:05 52.01820 7.66351 1783 ft 154 kts 193°
2026-05-05 19:06 52.00802 7.65891 1778 ft 150 kts 191°
2026-05-05 19:06 51.99794 7.65461 1783 ft 149 kts 191°
2026-05-05 19:06 51.98787 7.65040 1782 ft 149 kts 189°
2026-05-05 19:06 51.97782 7.64622 1780 ft 148 kts 191°
2026-05-05 19:07 51.96793 7.64207 1833 ft 145 kts 190°
2026-05-05 19:07 51.96142 7.63941 1920 ft 146 kts 189°
2026-05-05 19:07 51.94802 7.63418 1988 ft 155 kts 190°
2026-05-05 19:07 51.93734 7.63008 1986 ft 159 kts 189°
2026-05-05 19:08 51.92647 7.62596 1987 ft 161 kts 189°
2026-05-05 19:08 51.91554 7.62188 1989 ft 162 kts 190°
2026-05-05 19:08 51.90445 7.61775 1990 ft 164 kts 190°
2026-05-05 19:08 51.89334 7.61360 1988 ft 163 kts 190°
2026-05-05 19:09 51.88230 7.60942 1992 ft 163 kts 189°
2026-05-05 19:09 51.87120 7.60527 1989 ft 164 kts 189°
2026-05-05 19:09 51.86010 7.60110 1989 ft 164 kts 189°
2026-05-05 19:09 51.84894 7.59699 1988 ft 165 kts 189°
2026-05-05 19:10 51.84147 7.59494 1983 ft 163 kts 177°
2026-05-05 19:10 51.82673 7.59698 1983 ft 160 kts 169°
2026-05-05 19:10 51.81562 7.59836 1981 ft 161 kts 172°
2026-05-05 19:10 51.80441 7.59907 1981 ft 162 kts 173°
2026-05-05 19:11 51.79312 7.59972 1984 ft 163 kts 174°
2026-05-05 19:11 51.78182 7.60018 1956 ft 163 kts 175°
2026-05-05 19:11 51.77091 7.60062 1825 ft 152 kts 174°
2026-05-05 19:11 51.76051 7.60108 1694 ft 147 kts 174°
2026-05-05 19:12 51.75376 7.60141 1609 ft 146 kts 174°
2026-05-05 19:12 51.74368 7.60189 1482 ft 143 kts 175°
2026-05-05 19:12 51.73410 7.60234 1477 ft 133 kts 175°
2026-05-05 19:12 51.72208 7.60289 1398 ft 132 kts 174°
2026-05-05 19:13 51.71273 7.60336 1262 ft 135 kts 175°
2026-05-05 19:13 51.70642 7.60364 1173 ft 136 kts 175°
2026-05-05 19:13 51.69703 7.60246 1038 ft 137 kts 197°
2026-05-05 19:13 51.68808 7.59716 973 ft 135 kts 200°
2026-05-05 19:14 51.67964 7.59193 964 ft 126 kts 199°
2026-05-05 19:14 51.67160 7.58702 967 ft 121 kts 201°
2026-05-05 19:14 51.66387 7.58236 966 ft 116 kts 200°
2026-05-05 19:14 51.65633 7.57798 988 ft 111 kts 201°
2026-05-05 19:15 51.64918 7.57403 993 ft 111 kts 197°
2026-05-05 19:15 51.64157 7.57014 996 ft 117 kts 197°
2026-05-05 19:15 51.63356 7.56629 1006 ft 125 kts 197°
2026-05-05 19:15 51.62509 7.56204 1004 ft 130 kts 197°
2026-05-05 19:16 51.61637 7.55765 1006 ft 133 kts 197°
2026-05-05 19:16 51.60738 7.55300 1003 ft 136 kts 198°
2026-05-05 19:16 51.59832 7.54845 1004 ft 138 kts 197°
2026-05-05 19:16 51.58912 7.54390 998 ft 137 kts 197°
2026-05-05 19:17 51.58001 7.53942 1002 ft 138 kts 197°
2026-05-05 19:17 51.57094 7.53480 1003 ft 138 kts 197°
2026-05-05 19:17 51.56174 7.53015 1000 ft 140 kts 198°
2026-05-05 19:17 51.55367 7.52205 997 ft 137 kts 234°
2026-05-05 19:18 51.54818 7.50951 1001 ft 139 kts 239°
2026-05-05 19:18 51.54277 7.49649 1009 ft 141 kts 239°
2026-05-05 19:18 51.53693 7.48389 1002 ft 142 kts 220°
2026-05-05 19:18 51.52800 7.47953 1007 ft 128 kts 174°
2026-05-05 19:19 51.52008 7.48382 986 ft 112 kts 153°
2026-05-05 19:19 51.51311 7.48810 1003 ft 108 kts 156°
2026-05-05 19:19 51.50622 7.49252 991 ft 104 kts 156°
2026-05-05 19:19 51.49984 7.49648 996 ft 92 kts 156°
2026-05-05 19:20 51.49418 7.50023 951 ft 88 kts 150°
2026-05-05 19:20 51.48874 7.50478 1040 ft 89 kts 145°
2026-05-05 19:20 51.48337 7.50995 1154 ft 88 kts 136°
2026-05-05 19:20 51.48306 7.51806 1214 ft 83 kts 50°
2026-05-05 19:21 51.48650 7.52566 1301 ft 84 kts 48°
2026-05-05 19:21 51.49023 7.53294 1365 ft 85 kts 45°
2026-05-05 19:21 51.49336 7.54100 1411 ft 88 kts 58°
2026-05-05 19:21 51.49639 7.54970 1432 ft 92 kts 56°
2026-05-05 19:22 51.49960 7.55864 1243 ft 93 kts 56°
2026-05-05 19:22 51.50284 7.56790 1047 ft 96 kts 58°
2026-05-05 19:22 51.50618 7.57732 897 ft 96 kts 58°
2026-05-05 19:22 51.50947 7.58686 722 ft 98 kts 59°
2026-05-05 19:23 51.51269 7.59606 605 ft 93 kts 57°
2026-05-05 19:23 51.51584 7.60496 466 ft 89 kts 57°
2026-05-05 19:23 51.51838 7.61226 413 ft 54 kts 61°
2026-05-05 19:23 51.52005 7.61708 412 ft 44 kts 61°
2026-05-05 19:24 51.52126 7.62055 413 ft 29 kts 63°
2026-05-05 19:24 51.52200 7.62252 413 ft 13 kts 72°
2026-05-05 19:24 51.52150 7.62345 413 ft 12 kts 153°
2026-05-05 19:24 51.52094 7.62395 411 ft 0 kts 155°
2026-05-05 19:26 51.52064 7.62395 410 ft 8 kts 211°
2026-05-05 19:26 51.52026 7.62315 410 ft 10 kts 240°
2026-05-05 19:26 51.51993 7.62222 412 ft 10 kts 241°
2026-05-05 19:26 51.51961 7.62128 412 ft 10 kts 238°
2026-05-05 19:27 51.51910 7.61984 412 ft 18 kts 240°
2026-05-05 19:27 51.51850 7.61817 414 ft 17 kts 239°
2026-05-05 19:27 51.51787 7.61637 421 ft 20 kts 240°
2026-05-05 19:27 51.51721 7.61448 426 ft 18 kts 241°
2026-05-05 19:28 51.51660 7.61278 425 ft 17 kts 240°
2026-05-05 19:28 51.51605 7.61114 423 ft 17 kts 241°
2026-05-05 19:28 51.51532 7.61061 428 ft 10 kts 177°
2026-05-05 19:28 51.51485 7.60981 429 ft 14 kts 241°
2026-05-05 19:29 51.51430 7.60827 426 ft 23 kts 240°
2026-05-05 19:29 51.51328 7.60538 431 ft 31 kts 241°
2026-05-05 19:29 51.51236 7.60276 441 ft 24 kts 237°
2026-05-05 19:29 51.51159 7.60172 430 ft 13 kts 126°
2026-05-05 19:30 51.51186 7.60276 443 ft 9 kts 52°
2026-05-05 19:30 51.51210 7.60347 443 ft 4 kts 114°
2026-05-05 19:30 51.51196 7.60411 443 ft 3 kts 106°
2026-05-05 19:30 51.51195 7.60415 437 ft 0 kts 104°